Alvadore, OR

12:26 PM PST on January 24, 2017 (GMT -0800)
Mahlon Sweet

Weather History for KEUG - June, 2013

Change the Weather History Date:

Sunday, June 16, 2013

  Actual Average Record
Temperature  
Mean Temperature 63 °F 60 °F  
Max Temperature 79 °F 73 °F 95 °F (1961)
Min Temperature 46 °F 48 °F 36 °F (1955)
Degree Days  
Heating Degree Days 2 5  
Month to date heating degree days 60 102  
Since 1 June heating degree days 60 102  
Since 1 July heating degree days 4321 4751  
Cooling Degree Days 0 1  
Month to date cooling degree days 8 1  
Year to date cooling degree days 13 6  
Since 1 June cooling degree days 8 1  
Growing Degree Days 12 (Base 50)    
Moisture  
Dew Point 49 °F    
Average Humidity 66    
Maximum Humidity 93    
Minimum Humidity 39    
Precipitation  
Precipitation 0.00 in 0.05 in 0.49 in (1931)
Month to date precipitation 0.18 1.02  
Year to date precipitation 8.75 24.38  
Snow  
Snow 0.00 in - - ()
Month to date snowfall 0.0  
Since 1 June snowfall 0.0  
Since 1 July snowfall 0.0  
Snow Depth 0.00 in    
Sea Level Pressure  
Sea Level Pressure 30.09 in    
Wind  
Wind Speed 5 mph (WSW)    
Max Wind Speed 17 mph    
Max Gust Speed 22 mph    
Visibility 10 miles    
Events      
T = Trace of Precipitation, MM = Missing Value Source: NWS Daily Summary

Daily Weather History Graph

Daily Weather History Graph

Search for Another Location

Airport or City:

Trip Planner

Search our weather history database for the weather conditions in past years. The results will help you decide how hot, cold, wet, or windy it might be!

Date:

Astronomy

Jun. 16, 2013 Rise Set
Actual Time 5:28 AM PDT 8:58 PM PDT
Civil Twilight 4:52 AM PDT 9:34 PM PDT
Nautical Twilight 4:04 AM PDT 10:22 PM PDT
Astronomical Twilight 3:03 AM PDT 11:24 PM PDT
Moon 1:26 PM PDT (6/16) 12:51 AM PDT (6/16)
Length of Visible Light 16h 42m
Length of Day
15h 29m
Waxing Crescent, 51% of the Moon is Illuminated
Jun 16
Waxing Crescent
Jun 23
Full
Jun 29
Last Quarter
Jul 8
New
Jul 15
First Quarter

Hourly Weather History & Observations

Time (PDT) Temp. Dew Point Humidity Pressure Visibility Wind Dir Wind Speed Gust Speed Precip Events Conditions
12:54 AM 52.0 °F 48.9 °F 89% 30.06 in 10.0 mi SSW 6.9 mph - N/A   Partly Cloudy
1:54 AM 52.0 °F 48.9 °F 89% 30.06 in 10.0 mi SW 4.6 mph - N/A   Clear
2:19 AM 51.8 °F 48.2 °F 88% 30.07 in 10.0 mi SSW 5.8 mph - N/A   Mostly Cloudy
2:54 AM 52.0 °F 48.9 °F 89% 30.06 in 10.0 mi SSW 5.8 mph - N/A   Overcast
3:54 AM 48.9 °F 46.9 °F 93% 30.07 in 10.0 mi South 5.8 mph - N/A   Scattered Clouds
4:54 AM 48.0 °F 46.0 °F 93% 30.08 in 10.0 mi SSW 4.6 mph - N/A   Clear
5:54 AM 46.9 °F 45.0 °F 93% 30.08 in 10.0 mi South 4.6 mph - N/A   Overcast
6:54 AM 52.0 °F 48.0 °F 86% 30.09 in 10.0 mi SSW 5.8 mph - N/A   Overcast
7:17 AM 51.8 °F 48.2 °F 88% 30.10 in 10.0 mi SSW 5.8 mph - N/A   Overcast
7:54 AM 54.0 °F 48.9 °F 83% 30.11 in 10.0 mi Calm Calm - N/A   Overcast
8:54 AM 57.9 °F 50.0 °F 75% 30.10 in 10.0 mi Calm Calm - N/A   Overcast
9:54 AM 60.1 °F 48.9 °F 67% 30.11 in 10.0 mi Calm Calm - N/A   Mostly Cloudy
10:54 AM 63.0 °F 50.0 °F 63% 30.10 in 10.0 mi Variable 3.5 mph - N/A   Mostly Cloudy
11:54 AM 66.9 °F 50.0 °F 54% 30.09 in 10.0 mi Calm Calm - N/A   Mostly Cloudy
12:54 PM 71.1 °F 48.9 °F 45% 30.08 in 10.0 mi Calm Calm - N/A   Mostly Cloudy
1:54 PM 73.0 °F 50.0 °F 44% 30.07 in 10.0 mi Variable 4.6 mph - N/A   Overcast
2:54 PM 75.0 °F 51.1 °F 43% 30.07 in 10.0 mi NW 4.6 mph - N/A   Overcast
3:54 PM 77.0 °F 50.0 °F 39% 30.07 in 10.0 mi WNW 8.1 mph - N/A   Mostly Cloudy
4:54 PM 77.0 °F 50.0 °F 39% 30.07 in 10.0 mi West 6.9 mph - N/A   Mostly Cloudy
5:54 PM 75.0 °F 50.0 °F 41% 30.08 in 10.0 mi WNW 11.5 mph - N/A   Mostly Cloudy
6:54 PM 71.1 °F 50.0 °F 47% 30.09 in 10.0 mi WNW 10.4 mph - N/A   Mostly Cloudy
7:54 PM 66.9 °F 50.0 °F 54% 30.11 in 10.0 mi WNW 12.7 mph - N/A   Mostly Cloudy
8:54 PM 61.0 °F 48.0 °F 62% 30.14 in 10.0 mi West 11.5 mph - N/A   Mostly Cloudy
9:54 PM 57.0 °F 48.9 °F 74% 30.16 in 10.0 mi West 5.8 mph - N/A   Mostly Cloudy
10:54 PM 55.9 °F 48.9 °F 77% 30.16 in 10.0 mi WSW 5.8 mph - N/A   Mostly Cloudy
11:54 PM 54.0 °F 48.0 °F 80% 30.15 in 10.0 mi WSW 3.5 mph - N/A   Clear